DAL103 KMCO-CYYZ

Flight info

Callsign DAL103
Flight time N/A
Altitude 41000
Route FATHE4 VIYAP Q69 RICCS DCT OXMAN LINNG3
Aircraft A359/H-SDE2E3GHIJ3J4J5LM1ORWXY/LB1D1

Departure

Time 2026-04-23 22:12
Airport Orlando International Airport (KMCO)

Arrival

Time N/A
Airport Toronto Pearson International Airport (CYYZ)
Time Latitude Longitude Altitude Speed Heading
2026-04-23 21:47 28.43315 -81.31573 103 ft 0 kts 16°
2026-04-23 22:02 28.43311 -81.31575 101 ft 2 kts 16°
2026-04-23 22:02 28.43294 -81.31581 101 ft 3 kts
2026-04-23 22:02 28.43279 -81.31582 99 ft 3 kts 338°
2026-04-23 22:02 28.43270 -81.31578 99 ft 3 kts 299°
2026-04-23 22:03 28.43266 -81.31566 98 ft 1 kts 271°
2026-04-23 22:03 28.43265 -81.31552 99 ft 3 kts 271°
2026-04-23 22:03 28.43265 -81.31533 102 ft 1 kts 271°
2026-04-23 22:03 28.43265 -81.31531 102 ft 0 kts 271°
2026-04-23 22:05 28.43265 -81.31536 101 ft 4 kts 271°
2026-04-23 22:05 28.43274 -81.31617 101 ft 17 kts 280°
2026-04-23 22:06 28.43345 -81.31699 104 ft 14 kts
2026-04-23 22:06 28.43453 -81.31676 102 ft 18 kts 10°
2026-04-23 22:06 28.43577 -81.31651 105 ft 18 kts 10°
2026-04-23 22:06 28.43703 -81.31618 106 ft 18 kts 15°
2026-04-23 22:07 28.43793 -81.31650 111 ft 14 kts 330°
2026-04-23 22:07 28.43849 -81.31658 113 ft 7 kts 14°
2026-04-23 22:07 28.43921 -81.31570 112 ft 20 kts 76°
2026-04-23 22:07 28.43928 -81.31400 110 ft 22 kts 89°
2026-04-23 22:08 28.43934 -81.31220 114 ft 25 kts 87°
2026-04-23 22:08 28.43942 -81.31001 112 ft 29 kts 90°
2026-04-23 22:08 28.43937 -81.30756 113 ft 31 kts 96°
2026-04-23 22:08 28.43917 -81.30508 112 ft 32 kts 95°
2026-04-23 22:09 28.43905 -81.30254 109 ft 33 kts 92°
2026-04-23 22:09 28.43898 -81.30045 105 ft 26 kts 95°
2026-04-23 22:09 28.43882 -81.29975 105 ft 4 kts 111°
2026-04-23 22:09 28.43817 -81.29864 102 ft 21 kts 139°
2026-04-23 22:10 28.43678 -81.29807 102 ft 22 kts 179°
2026-04-23 22:10 28.43522 -81.29805 102 ft 22 kts 180°
2026-04-23 22:10 28.43437 -81.29750 103 ft 14 kts 104°
2026-04-23 22:10 28.43438 -81.29641 104 ft 14 kts 90°
2026-04-23 22:11 28.43384 -81.29585 104 ft 12 kts 175°
2026-04-23 22:11 28.43199 -81.29583 105 ft 56 kts 179°
2026-04-23 22:11 28.42571 -81.29576 102 ft 123 kts 180°
2026-04-23 22:11 28.41530 -81.29578 240 ft 166 kts 176°
2026-04-23 22:12 28.40428 -81.29568 1111 ft 154 kts 174°
2026-04-23 22:12 28.39353 -81.29532 1724 ft 159 kts 173°
2026-04-23 22:12 28.38213 -81.29268 1930 ft 176 kts 155°
2026-04-23 22:12 28.37072 -81.28562 2110 ft 198 kts 143°
2026-04-23 22:13 28.35934 -81.27552 2382 ft 218 kts 133°
2026-04-23 22:13 28.35122 -81.26033 2666 ft 236 kts 105°
2026-04-23 22:13 28.35212 -81.24181 3177 ft 246 kts 69°
2026-04-23 22:13 28.36305 -81.22675 3795 ft 257 kts 36°
2026-04-23 22:14 28.38042 -81.22086 4328 ft 270 kts
2026-04-23 22:14 28.39851 -81.22677 4969 ft 277 kts 328°
2026-04-23 22:14 28.41385 -81.23986 5602 ft 277 kts 327°
2026-04-23 22:14 28.43210 -81.24608 6291 ft 276 kts 358°
2026-04-23 22:15 28.45140 -81.24620 6916 ft 279 kts
2026-04-23 22:15 28.47090 -81.24654 7520 ft 282 kts 357°
2026-04-23 22:15 28.49058 -81.24774 8157 ft 284 kts 355°
2026-04-23 22:15 28.51003 -81.24944 8776 ft 285 kts 354°
2026-04-23 22:16 28.52990 -81.25147 9422 ft 288 kts 353°
2026-04-23 22:16 28.54991 -81.25368 10063 ft 290 kts 352°
2026-04-23 22:16 28.57040 -81.25604 10435 ft 303 kts 352°
2026-04-23 22:16 28.59194 -81.25859 10702 ft 318 kts 352°
2026-04-23 22:17 28.61438 -81.26127 10971 ft 331 kts 352°
2026-04-23 22:17 28.63771 -81.26405 11273 ft 343 kts 352°
2026-04-23 22:17 28.66198 -81.26695 11657 ft 358 kts 352°
2026-04-23 22:17 28.68704 -81.26994 12353 ft 365 kts 352°
2026-04-23 22:18 28.71246 -81.27297 13112 ft 369 kts 352°
2026-04-23 22:18 28.73779 -81.27601 13838 ft 373 kts 352°
2026-04-23 22:18 28.76372 -81.27911 14493 ft 377 kts 352°
2026-04-23 22:18 28.78997 -81.28226 15149 ft 381 kts 352°
2026-04-23 22:19 28.81648 -81.28545 15792 ft 385 kts 352°
2026-04-23 22:19 28.84326 -81.28868 16472 ft 389 kts 352°
2026-04-23 22:19 28.87040 -81.29152 17156 ft 393 kts 353°
2026-04-23 22:19 28.89784 -81.29369 17836 ft 397 kts 354°
2026-04-23 22:20 28.92520 -81.29584 18497 ft 401 kts 353°
2026-04-23 22:20 28.95318 -81.29812 19070 ft 405 kts 353°
2026-04-23 22:20 28.98146 -81.30047 19665 ft 409 kts 353°
2026-04-23 22:20 29.00990 -81.30302 20275 ft 412 kts 352°
2026-04-23 22:21 29.03860 -81.30621 20899 ft 416 kts 351°
2026-04-23 22:21 29.06752 -81.30954 21510 ft 419 kts 351°
2026-04-23 22:21 29.09664 -81.31286 22135 ft 423 kts 351°
2026-04-23 22:21 29.12609 -81.31599 22744 ft 427 kts 353°
2026-04-23 22:22 29.15587 -81.31781 23349 ft 432 kts 354°
2026-04-23 22:22 29.18608 -81.31932 23897 ft 436 kts 354°
2026-04-23 22:22 29.21616 -81.32091 24425 ft 440 kts 354°
2026-04-23 22:22 29.24685 -81.32263 24981 ft 443 kts 353°
2026-04-23 22:23 29.27771 -81.32441 25505 ft 446 kts 353°
2026-04-23 22:23 29.30880 -81.32625 26010 ft 449 kts 353°
2026-04-23 22:23 29.34012 -81.32812 26520 ft 453 kts 353°
2026-04-23 22:23 29.37172 -81.33001 27019 ft 456 kts 353°
2026-04-23 22:24 29.40352 -81.33192 27534 ft 459 kts 353°
2026-04-23 22:24 29.43552 -81.33385 28023 ft 462 kts 353°
2026-04-23 22:24 29.46782 -81.33580 28506 ft 466 kts 353°
2026-04-23 22:24 29.49987 -81.33773 28964 ft 470 kts 353°
2026-04-23 22:25 29.53263 -81.33971 29426 ft 473 kts 353°
2026-04-23 22:25 29.56559 -81.34171 29887 ft 476 kts 354°
2026-04-23 22:25 29.59884 -81.34372 30296 ft 480 kts 353°
2026-04-23 22:25 29.63226 -81.34574 30663 ft 483 kts 353°
2026-04-23 22:26 29.66591 -81.34776 31016 ft 486 kts 353°
2026-04-23 22:26 29.69978 -81.34969 31357 ft 489 kts 354°
2026-04-23 22:26 29.73386 -81.35161 31698 ft 491 kts 354°
2026-04-23 22:26 29.76808 -81.35355 32024 ft 494 kts 353°
2026-04-23 22:27 29.80206 -81.35549 32335 ft 496 kts 353°
2026-04-23 22:27 29.83654 -81.35746 32665 ft 498 kts 353°
2026-04-23 22:27 29.87118 -81.35944 33127 ft 497 kts 353°
2026-04-23 22:27 29.90565 -81.36141 33592 ft 496 kts 353°
2026-04-23 22:28 29.94004 -81.36338 34036 ft 495 kts 353°
2026-04-23 22:28 29.97438 -81.36535 34424 ft 494 kts 353°
2026-04-23 22:28 30.00871 -81.36732 34819 ft 492 kts 353°
2026-04-23 22:28 30.04280 -81.36929 35212 ft 490 kts 353°
2026-04-23 22:29 30.07642 -81.37123 35563 ft 490 kts 353°
2026-04-23 22:29 30.11038 -81.37319 35907 ft 489 kts 353°
2026-04-23 22:29 30.14436 -81.37515 36240 ft 488 kts 353°
2026-04-23 22:29 30.17827 -81.37711 36565 ft 488 kts 353°
2026-04-23 22:30 30.21209 -81.37907 36892 ft 487 kts 353°
2026-04-23 22:30 30.24591 -81.38102 37226 ft 486 kts 353°
2026-04-23 22:30 30.27963 -81.38298 37553 ft 485 kts 353°
2026-04-23 22:30 30.31330 -81.38493 37879 ft 484 kts 354°
2026-04-23 22:31 30.34688 -81.38687 38186 ft 483 kts 354°
2026-04-23 22:31 30.38046 -81.38882 38499 ft 482 kts 354°
2026-04-23 22:31 30.41390 -81.39077 38778 ft 481 kts 354°
2026-04-23 22:31 30.44688 -81.39269 38998 ft 481 kts 354°
2026-04-23 22:32 30.48027 -81.39463 39222 ft 480 kts 354°
2026-04-23 22:32 30.51367 -81.39640 39446 ft 480 kts 354°
2026-04-23 22:32 30.54695 -81.39811 39666 ft 479 kts 354°
2026-04-23 22:32 30.58029 -81.39984 39854 ft 479 kts 354°
2026-04-23 22:33 30.61355 -81.40158 40060 ft 479 kts 354°
2026-04-23 22:33 30.64680 -81.40333 40242 ft 478 kts 354°
2026-04-23 22:33 30.68005 -81.40509 40434 ft 478 kts 354°
2026-04-23 22:33 30.71275 -81.40682 40621 ft 477 kts 353°
2026-04-23 22:34 30.74590 -81.40858 40791 ft 477 kts 353°
2026-04-23 22:34 30.77907 -81.41034 40966 ft 477 kts 353°
2026-04-23 22:34 30.81220 -81.41210 41086 ft 477 kts 353°
2026-04-23 22:34 30.84540 -81.41387 41088 ft 477 kts 353°
2026-04-23 22:35 30.91165 -81.41739 41083 ft 476 kts 353°
2026-04-23 22:35 30.97789 -81.42093 41081 ft 476 kts 353°
2026-04-23 22:36 31.04357 -81.42444 41082 ft 476 kts 354°
2026-04-23 22:36 31.10981 -81.42766 41071 ft 477 kts 356°
2026-04-23 22:37 31.17627 -81.42210 41086 ft 480 kts
2026-04-23 22:37 31.24251 -81.41176 41099 ft 480 kts
2026-04-23 22:38 31.30819 -81.40072 41092 ft 480 kts
2026-04-23 22:38 31.37430 -81.38990 41089 ft 479 kts
2026-04-23 22:39 31.44035 -81.37935 41084 ft 479 kts
2026-04-23 22:39 31.50638 -81.36887 41079 ft 479 kts
2026-04-23 22:40 31.57192 -81.35845 41071 ft 478 kts
2026-04-23 22:41 31.67077 -81.34268 41056 ft 478 kts
2026-04-23 22:41 31.73659 -81.33215 41057 ft 477 kts
2026-04-23 22:42 31.80236 -81.32162 41051 ft 477 kts
2026-04-23 22:42 31.86766 -81.31115 41044 ft 476 kts
2026-04-23 22:43 31.93331 -81.30060 41041 ft 476 kts
2026-04-23 22:43 31.99893 -81.29005 41039 ft 476 kts
2026-04-23 22:44 32.06448 -81.27949 41067 ft 475 kts
2026-04-23 22:44 32.12995 -81.26893 41066 ft 474 kts
2026-04-23 22:45 32.19486 -81.25845 41064 ft 474 kts
2026-04-23 22:45 32.26020 -81.24788 41063 ft 473 kts
2026-04-23 22:46 32.32542 -81.23732 41058 ft 473 kts
2026-04-23 22:46 32.39014 -81.22681 41054 ft 473 kts
2026-04-23 22:47 32.45532 -81.21623 41048 ft 472 kts
2026-04-23 22:47 32.52033 -81.20498 41045 ft 473 kts
2026-04-23 22:48 32.58493 -81.18982 41044 ft 473 kts
2026-04-23 22:48 32.64942 -81.17394 41043 ft 473 kts
2026-04-23 22:49 32.71343 -81.15875 41035 ft 472 kts
2026-04-23 22:49 32.77782 -81.14384 41031 ft 471 kts
2026-04-23 22:50 32.84216 -81.12901 41024 ft 471 kts
2026-04-23 22:50 32.90641 -81.11417 41023 ft 470 kts
2026-04-23 22:51 32.97022 -81.09939 41024 ft 470 kts
2026-04-23 22:51 33.03438 -81.08448 41023 ft 470 kts
2026-04-23 22:52 33.09847 -81.06957 41022 ft 469 kts
2026-04-23 22:52 33.16255 -81.05464 41025 ft 469 kts
2026-04-23 22:53 33.22614 -81.03980 41028 ft 469 kts
2026-04-23 22:53 33.29012 -81.02485 41029 ft 468 kts
2026-04-23 22:54 33.35408 -81.00989 41028 ft 468 kts
2026-04-23 22:54 33.41803 -80.99490 41028 ft 468 kts
2026-04-23 22:55 33.48188 -80.97992 41026 ft 468 kts
2026-04-23 22:55 33.54533 -80.96502 41003 ft 467 kts
2026-04-23 22:56 33.60914 -80.95000 41001 ft 467 kts
2026-04-23 22:56 33.67289 -80.93498 41004 ft 467 kts
2026-04-23 22:57 33.73662 -80.91993 41003 ft 467 kts
2026-04-23 22:57 33.79990 -80.90498 40998 ft 466 kts
2026-04-23 22:58 33.86351 -80.88995 40986 ft 466 kts
2026-04-23 22:58 33.92744 -80.87764 40987 ft 464 kts
2026-04-23 22:59 33.99140 -80.86697 40990 ft 464 kts
2026-04-23 22:59 34.05489 -80.85606 40995 ft 464 kts
2026-04-23 23:00 34.11877 -80.84467 41014 ft 464 kts
2026-04-23 23:00 34.18261 -80.83315 41009 ft 464 kts
2026-04-23 23:01 34.24639 -80.82161 41010 ft 463 kts
2026-04-23 23:01 34.31016 -80.81000 41014 ft 463 kts
2026-04-23 23:02 34.37387 -80.79842 41012 ft 463 kts
2026-04-23 23:02 34.43717 -80.78691 41015 ft 463 kts
2026-04-23 23:03 34.50081 -80.77532 41013 ft 462 kts